GFSMA_500_spd_168.txt.gz
Wind_Speed
37 38 38 40 40 40 41 40 39 38 38 40 39 41 41 40 41 40 38 37 38 37 35 34 31 28 25 29 30 30 29 26 25 23 23 24 25 26 25 25 24 23 21
42 42 42 42 44 45 45 45 46 46 45 43 42 43 43 43 44 43 43 41 41 40 38 36 34 31 30 30 31 32 31 30 28 27 26 25 27 27 29 27 27 26 25
44 45 46 46 46 46 47 48 48 48 50 50 49 46 45 45 45 45 47 45 44 43 42 39 36 35 35 33 32 32 33 34 33 32 31 30 30 29 29 29 29 28 26
48 47 47 49 50 51 52 52 54 55 55 54 54 54 52 50 49 48 48 47 46 44 43 42 40 40 38 37 36 34 35 35 35 34 35 33 32 31 30 31 32 30 28
52 52 51 50 51 51 53 54 55 56 59 61 61 60 58 57 54 52 51 50 48 47 45 43 42 42 44 42 35 42 38 38 36 34 34 34 34 31 29 29 30 28 27
47 47 48 50 51 53 55 57 59 61 61 62 65 66 64 62 60 58 56 54 51 49 46 45 44 44 45 42 44 49 41 39 40 33 33 33 33 32 28 25 25 26 27
46 46 48 51 54 55 56 57 59 62 64 68 70 68 68 69 66 62 59 58 54 52 49 47 45 46 45 44 43 44 44 43 43 39 37 33 32 33 31 28 27 28 29
45 45 40 40 43 48 53 57 62 65 69 73 73 71 70 68 69 66 63 61 57 55 53 51 49 48 45 45 45 43 42 49 37 32 38 35 36 37 35 33 32 32 33
29 28 27 29 34 39 47 54 63 71 75 71 70 70 70 69 67 66 64 61 60 58 55 52 52 49 45 45 44 45 43 41 40 40 36 31 40 42 38 38 37 38 38
23 21 22 28 32 39 45 50 51 57 61 60 66 65 68 68 69 63 63 61 59 56 56 54 51 49 48 44 43 44 43 43 43 43 47 38 34 37 42 41 43 41 45
17 22 26 31 37 43 47 54 45 48 51 56 60 65 69 67 65 64 58 57 57 55 55 53 51 49 47 46 44 44 41 42 47 47 50 47 50 48 48 45 48 48 41
17 22 30 34 36 40 46 53 41 46 49 47 40 39 45 55 60 61 59 55 55 54 54 54 54 53 50 49 47 46 46 44 44 45 48 50 51 50 48 50 53 52 47
20 25 28 32 34 40 44 52 41 41 33 26 22 27 32 38 51 53 55 55 52 51 52 54 54 53 53 52 51 48 47 49 49 49 48 48 48 49 48 46 47 49 52
23 27 31 32 32 35 41 49 43 35 24 17 14 17 22 24 35 43 47 51 52 50 49 51 52 54 54 54 53 52 47 47 51 52 53 53 53 54 55 55 54 53 54
26 30 30 28 30 31 36 41 47 35 25 16 10 8 10 13 16 28 34 40 46 48 49 50 50 51 52 52 52 52 51 49 51 53 56 58 60 60 60 61 61 61 62
28 29 26 27 30 32 32 35 40 45 33 25 16 9 3 4 9 16 21 26 31 35 40 47 51 53 52 51 51 50 50 51 52 54 56 59 61 64 66 67 68 68 68
28 25 25 27 30 31 32 32 32 35 39 36 25 18 12 6 1 11 18 22 26 31 34 31 35 42 47 52 54 54 52 52 52 55 58 63 65 68 70 71 71 73 75
26 25 27 29 29 28 28 29 31 31 31 30 33 31 22 15 11 10 11 15 18 22 26 30 34 37 38 41 46 49 50 51 50 42 38 39 41 44 48 54 62 70 75
27 27 28 28 28 26 25 26 27 27 29 27 24 21 19 18 18 15 11 7 7 10 11 13 15 17 18 19 20 22 26 30 34 37 39 42 44 46 47 46 48 51 51
27 27 27 27 27 27 26 26 26 27 26 26 26 24 21 17 14 12 11 10 10 10 11 12 13 15 16 19 21 24 28 33 36 39 41 42 44 46 48 50 51 53 54
28 27 26 28 27 26 26 27 27 27 27 27 25 23 21 19 19 17 15 14 14 15 17 18 20 21 23 25 28 29 33 37 41 46 49 49 51 50 49 52 52 53 53
29 28 27 29 28 27 27 27 27 27 27 26 25 25 25 22 20 19 19 20 20 21 22 24 27 29 31 34 36 39 39 39 43 45 49 51 52 55 53 51 51 55 55
30 29 30 31 29 28 28 28 28 30 30 30 28 26 26 27 28 26 23 24 26 27 28 29 30 32 34 37 39 41 42 44 47 47 48 50 53 54 54 54 54 54 54
30 29 29 29 30 31 30 30 30 31 33 34 31 30 29 27 26 27 28 29 30 32 33 34 35 36 38 39 41 42 44 45 48 51 52 52 54 56 58 58 58 57 56
31 31 31 31 31 31 32 33 33 33 34 34 34 32 32 32 31 30 29 30 33 35 36 37 37 37 38 40 42 45 47 49 50 52 53 55 56 58 62 64 60 57 56
33 33 33 34 35 35 36 37 38 37 35 35 35 34 34 34 34 34 34 34 34 34 36 38 39 40 42 43 44 47 50 53 55 55 56 59 59 59 63 57 53 50 48

GFSMA_500_spd_171.txt.gz
Wind_Speed
35 36 37 38 39 40 39 39 39 38 38 39 39 39 39 38 38 39 38 40 41 41 39 39 37 35 33 30 27 24 27 28 28 27 26 25 25 26 26 27 27 26 25
38 39 41 41 41 42 44 44 44 43 43 43 43 43 43 43 42 41 42 41 41 42 43 42 41 38 36 33 31 30 29 29 30 29 28 28 27 28 28 28 30 29 27
42 42 42 43 45 45 45 46 48 49 49 49 49 48 48 47 46 45 42 43 43 42 42 44 42 40 38 35 34 34 32 30 29 31 32 31 31 31 31 33 33 30 29
44 44 44 44 44 45 46 47 47 48 51 52 53 55 55 55 55 53 52 49 48 47 44 43 43 41 40 38 36 36 36 34 35 32 31 33 33 33 34 36 35 35 33
45 44 43 43 43 43 44 46 48 50 50 52 55 56 57 59 59 60 57 56 56 54 50 46 44 42 41 41 39 40 38 37 43 38 34 33 36 35 35 36 37 36 34
43 42 42 42 43 44 45 48 50 52 54 56 56 59 60 62 62 63 62 62 56 57 54 50 48 45 42 42 41 41 39 36 41 38 32 37 40 37 36 36 36 35 33
41 42 42 42 43 43 38 40 44 44 46 53 58 60 63 66 66 66 66 64 65 61 59 55 51 49 46 46 43 42 39 39 41 38 36 37 43 36 35 38 36 36 35
42 41 38 34 31 31 35 37 36 40 43 48 51 58 68 74 74 71 69 68 66 65 65 60 55 49 48 46 45 45 44 41 40 40 38 38 38 41 36 36 37 38 38
36 28 24 25 28 28 32 37 40 44 46 51 56 56 60 65 69 74 72 69 68 64 62 61 61 52 51 45 45 42 41 40 41 40 38 37 30 32 38 39 42 43 43
19 21 25 25 28 31 36 39 39 42 45 51 53 53 56 60 58 58 62 66 65 63 62 59 58 56 53 48 45 42 40 41 40 38 39 38 36 32 39 42 38 37 44
21 19 23 25 30 33 37 37 39 40 46 51 45 43 45 51 56 54 51 58 63 64 57 56 54 54 51 48 46 42 42 39 39 40 37 36 39 42 42 41 44 45 46
18 19 23 28 32 34 34 35 36 40 48 51 43 37 33 30 32 38 49 56 58 58 60 54 49 49 49 47 45 43 43 42 41 41 40 39 40 39 39 40 41 44 46
18 21 26 30 31 27 28 31 33 39 45 53 41 35 30 26 24 25 29 38 48 50 51 50 48 46 46 45 44 44 44 44 43 43 43 45 46 45 45 46 45 45 45
20 23 28 27 23 25 27 30 33 38 41 50 41 33 28 23 18 18 17 22 30 39 43 43 44 44 45 44 45 45 46 45 46 44 45 45 46 48 48 49 49 50 50
21 25 27 22 25 27 26 28 32 35 40 42 48 35 30 19 11 10 13 17 23 25 35 39 38 39 41 42 43 45 46 47 47 46 48 48 47 49 51 53 54 54 55
23 26 26 22 26 24 24 28 30 33 37 41 41 44 34 27 16 4 3 4 8 15 22 29 34 38 40 41 42 45 46 48 48 46 46 46 45 46 49 51 54 57 59
23 24 21 22 25 24 24 26 29 31 33 35 37 38 37 35 24 17 11 7 6 9 10 16 20 23 25 27 30 34 36 39 41 45 48 49 48 48 49 49 51 56 60
22 22 21 22 23 24 24 24 26 28 29 30 30 31 32 31 28 27 24 17 10 7 9 13 17 22 26 28 31 32 32 33 34 33 32 32 32 32 34 37 40 43 47
22 24 22 22 24 24 23 23 24 26 26 27 28 27 26 27 26 22 20 17 15 13 10 9 8 8 9 9 11 13 15 16 17 18 20 24 28 32 36 38 41 43 45
24 24 23 22 23 24 23 23 24 25 26 28 27 26 24 22 21 20 19 16 14 13 11 10 10 11 12 14 14 16 19 20 23 27 30 31 35 38 41 44 45 48 50
25 25 24 23 24 24 23 22 22 23 25 26 27 26 25 23 20 19 18 17 16 16 16 16 17 18 20 22 24 24 25 28 30 33 35 37 41 44 46 47 49 50 51
27 27 26 25 26 26 25 23 24 24 26 27 28 29 28 25 22 21 21 20 21 20 20 22 24 25 26 27 28 28 30 32 34 36 39 40 42 45 47 46 47 50 51
28 29 29 28 28 29 29 28 28 28 29 30 30 30 30 28 26 24 23 23 24 25 26 26 27 28 29 32 33 34 35 37 38 39 42 44 45 47 49 49 50 52 55
29 31 30 30 31 32 32 32 32 33 33 33 33 33 33 32 29 28 28 28 27 28 30 29 29 30 31 32 34 36 39 42 43 44 45 45 49 52 53 53 55 55 56
32 33 34 33 32 32 33 34 34 34 35 36 36 36 34 34 34 33 34 33 33 33 33 34 35 35 35 35 36 38 40 42 44 45 47 48 50 50 53 54 56 57 59
36 36 37 37 37 36 35 36 36 37 38 39 40 40 38 35 37 38 39 40 39 37 36 36 38 39 40 40 41 42 43 44 46 48 51 52 52 51 52 54 56 58 61

GFSMA_500_spd_174.txt.gz
Wind_Speed
33 34 35 37 38 38 39 40 40 41 41 42 42 43 43 43 42 42 42 40 40 39 38 39 40 40 39 37 35 33 30 28 27 26 29 29 27 25 25 25 26 27 27
36 38 39 41 42 42 42 43 44 44 44 45 45 46 47 47 48 48 45 45 44 44 42 41 40 41 41 40 38 35 33 31 31 30 29 30 31 30 29 29 28 27 28
39 40 41 42 43 45 44 44 44 45 46 47 47 49 49 51 52 53 53 51 50 49 45 44 43 42 41 40 39 38 37 35 33 32 31 28 30 32 34 34 33 31 31
42 42 42 43 43 43 43 43 45 45 45 47 48 49 50 50 52 53 55 56 57 55 54 51 48 46 43 42 40 40 39 38 36 36 34 32 31 33 34 37 38 37 35
43 42 42 42 42 43 43 43 45 46 46 46 47 47 48 51 53 54 57 58 58 57 57 56 57 53 50 45 43 42 42 40 38 38 37 35 31 33 38 36 37 38 37
41 41 42 42 43 43 43 45 45 43 42 41 43 44 47 49 54 58 60 61 62 63 61 60 60 58 47 53 48 47 44 41 40 39 39 38 34 30 31 35 37 38 39
39 41 43 43 44 44 41 36 33 35 39 42 43 46 50 54 58 59 63 69 70 69 67 65 62 59 53 49 46 47 45 44 41 39 40 38 36 32 34 31 39 36 37
42 43 44 43 38 31 28 30 34 36 41 45 45 47 50 56 61 64 67 69 72 74 73 69 66 61 60 59 53 49 48 48 45 43 41 39 37 36 36 34 33 36 39
43 41 33 24 23 27 30 31 35 39 41 43 43 47 52 55 58 55 59 61 63 66 71 72 69 65 61 59 54 50 49 53 44 43 42 38 39 36 34 31 28 29 32
31 19 19 23 24 26 29 33 37 36 35 38 44 47 52 54 44 43 48 51 57 59 60 68 69 67 63 57 55 51 47 44 41 41 40 40 39 38 34 35 33 34 36
18 20 21 22 23 27 32 33 28 29 32 36 43 46 54 41 42 42 36 38 44 51 53 57 60 62 62 58 55 51 51 50 41 41 38 36 36 37 36 35 37 35 34
19 18 19 23 25 29 27 24 26 28 30 35 40 46 53 41 42 38 34 29 34 41 43 42 49 54 53 53 49 49 48 45 40 38 37 36 38 38 38 36 37 37 38
16 18 22 24 27 26 23 26 24 28 30 33 40 45 47 44 35 26 27 24 22 24 36 43 47 43 41 43 47 45 41 38 35 36 38 40 41 43 43 42 41 42 42
16 19 21 24 25 20 24 20 23 28 29 31 35 40 46 45 36 26 28 17 10 9 18 32 35 39 42 38 36 36 35 36 37 38 40 42 43 45 45 45 45 46 47
16 17 21 23 18 19 21 20 22 24 27 30 32 34 40 44 42 33 27 26 10 8 15 23 26 29 32 33 35 36 36 36 38 40 41 42 43 44 44 46 47 49 51
13 17 19 18 17 18 21 22 20 22 23 27 30 30 33 37 40 37 30 23 22 13 10 13 17 22 26 29 32 33 35 36 38 40 41 42 43 44 45 45 46 47 49
12 15 17 18 17 19 22 22 19 21 25 27 28 30 30 30 32 34 30 28 17 10 7 1 8 15 20 24 27 28 29 31 33 35 36 37 39 40 42 45 46 47 47
12 15 18 19 18 20 24 25 20 20 24 25 27 30 28 29 26 26 28 25 20 19 11 5 5 6 9 13 16 19 21 24 26 28 31 33 32 29 28 28 28 30 33
14 16 19 21 21 23 25 25 22 20 22 23 25 27 28 26 25 22 18 18 18 17 14 11 8 6 4 4 5 7 8 8 10 11 13 15 18 21 24 27 30 32 33
15 18 21 22 23 24 26 26 25 24 24 25 26 27 28 28 26 22 20 17 13 11 11 12 12 11 10 11 13 15 17 18 20 21 24 26 27 28 30 33 35 39 42
18 20 22 23 23 25 27 27 27 26 25 26 27 28 29 30 29 26 23 21 19 17 15 14 16 17 19 20 20 22 24 25 25 27 29 31 33 35 37 38 40 42 45
21 23 24 25 25 26 27 29 28 27 27 26 26 27 29 30 30 29 26 25 24 23 22 23 23 23 23 24 25 26 28 30 31 34 36 37 38 41 42 44 46 46 48
24 26 27 28 28 29 30 30 31 30 30 30 30 31 32 33 32 31 30 28 27 27 27 28 29 30 30 30 30 30 31 33 33 35 37 40 41 43 44 47 48 50 51
27 28 30 31 32 32 32 32 32 34 34 33 33 34 35 35 34 31 31 31 30 31 32 32 33 33 33 35 36 36 37 38 38 39 41 41 43 45 47 49 50 52 53
32 32 34 35 35 37 36 36 36 36 36 36 36 38 38 37 36 35 34 34 34 35 34 36 36 36 38 38 38 40 41 42 43 43 45 46 48 50 53 54 56 57 58
36 37 39 39 40 41 40 39 39 39 39 38 39 41 42 41 41 39 37 37 37 37 38 38 37 38 39 40 41 41 43 46 47 48 49 50 52 53 55 57 59 60 61

GFSMA_500_spd_177.txt.gz
Wind_Speed
32 33 34 35 37 38 39 41 42 42 43 44 45 46 46 47 47 47 48 48 48 47 46 45 42 41 41 40 39 37 36 35 33 31 29 28 27 28 31 30 29 28 27
34 36 37 39 40 41 42 43 44 45 46 46 48 48 48 49 49 50 50 51 52 51 48 47 46 45 45 44 42 40 38 37 36 35 32 31 30 29 29 33 32 32 32
37 38 39 40 42 43 44 44 44 44 44 46 46 47 46 47 48 49 49 50 52 54 54 53 52 51 48 47 46 44 42 40 40 38 35 34 33 31 28 29 33 34 34
39 39 40 42 42 42 42 42 43 43 43 43 44 45 46 47 48 49 50 52 54 54 54 54 55 55 52 51 48 47 45 43 42 41 38 37 36 34 33 29 31 33 35
41 41 40 40 40 40 41 42 42 43 44 45 43 38 36 39 42 45 48 51 53 55 57 58 57 56 55 58 56 54 49 46 44 40 39 39 38 36 35 31 32 31 35
41 38 38 39 40 42 42 42 42 43 39 32 32 36 40 43 47 51 54 57 59 60 61 61 62 59 61 49 62 64 53 51 45 45 42 40 40 39 36 35 32 29 30
36 38 40 40 41 41 40 37 28 26 30 31 33 39 42 44 47 52 57 60 63 65 66 68 66 66 65 63 45 43 50 51 53 48 46 43 40 39 36 34 32 31 33
38 38 40 40 39 32 22 23 25 27 31 33 37 36 35 43 47 53 58 60 64 65 67 70 71 71 70 69 73 58 44 46 52 53 51 44 41 38 37 36 35 35 33
39 38 37 31 21 20 21 21 24 29 35 35 31 29 36 38 45 57 56 51 53 55 54 56 61 67 70 71 71 70 60 48 43 42 45 46 43 41 39 36 37 35 34
36 31 22 18 20 20 21 24 29 31 28 28 29 31 36 42 45 53 47 47 46 46 46 49 51 55 56 63 66 67 67 62 47 42 39 45 42 43 42 39 37 35 33
24 18 17 18 19 22 24 27 28 25 27 28 30 34 36 41 46 52 41 42 44 47 41 38 37 44 46 52 58 63 60 62 57 50 43 44 44 41 39 40 39 36 33
17 15 17 18 20 22 26 27 24 27 25 28 31 32 35 38 42 48 50 34 42 38 41 32 29 31 38 43 51 54 56 53 56 52 50 45 41 38 36 37 36 36 34
14 15 17 19 21 22 24 22 23 21 23 25 27 30 34 35 38 43 47 40 38 30 32 23 18 21 30 35 36 46 45 45 43 43 43 42 39 39 38 38 38 39 39
15 15 17 18 19 22 20 19 21 22 22 23 24 27 29 32 35 39 42 45 35 28 25 18 10 21 9 17 29 31 36 36 37 39 42 38 36 36 36 38 40 41 42
15 16 16 16 19 19 17 19 21 21 22 23 25 24 26 29 33 34 36 38 41 32 18 10 2 8 13 19 21 21 18 22 28 33 33 34 32 33 33 37 43 44 45
15 14 13 15 17 17 17 20 22 23 23 23 23 24 25 29 31 34 33 33 34 35 27 15 6 5 8 11 14 19 21 22 25 27 30 33 34 37 39 42 44 45 46
14 13 13 15 16 18 19 21 24 26 24 24 23 23 26 29 32 31 31 29 27 26 26 20 12 6 6 10 13 17 20 24 27 30 33 34 35 38 39 41 41 41 42
15 15 14 15 16 18 20 22 23 25 26 25 25 25 26 28 30 31 28 26 25 21 17 16 15 10 5 6 8 11 15 18 22 25 28 31 33 34 35 37 38 40 40
18 17 16 16 18 19 21 22 24 25 26 26 26 25 26 28 31 32 29 25 22 21 19 13 9 7 4 3 2 1 4 7 9 12 14 15 16 18 20 21 24 26 28
20 19 18 19 20 20 21 23 25 26 27 27 27 26 26 28 31 32 32 28 25 21 19 19 18 14 12 11 11 11 11 11 13 16 17 20 22 23 25 26 28 30 32
22 22 21 22 23 23 23 24 26 27 28 29 29 28 28 29 30 32 33 31 26 24 22 21 21 22 22 20 20 20 21 20 22 23 24 25 27 29 30 31 34 36 38
24 24 24 25 26 27 27 28 29 30 31 30 30 31 31 31 32 34 33 33 31 28 26 24 24 25 25 26 27 28 29 29 29 31 32 32 33 34 36 38 39 41 43
28 27 27 28 28 30 30 31 32 32 32 32 33 33 33 33 34 35 36 36 35 33 30 29 29 29 30 31 31 31 33 34 35 37 38 39 40 40 41 42 44 45 47
32 31 31 31 32 33 33 34 35 35 35 36 36 36 36 36 37 38 39 39 38 38 37 35 35 34 34 35 36 37 37 37 38 41 43 43 45 46 46 47 48 49 51
35 35 34 35 36 37 38 38 38 39 38 39 39 40 40 40 41 42 43 42 41 40 39 38 38 38 38 37 37 38 39 41 42 42 44 46 49 51 52 53 53 55 56
39 39 38 39 39 40 42 42 42 41 41 42 43 43 42 43 45 45 46 45 43 42 41 40 39 39 39 40 39 39 39 41 42 43 45 46 48 50 53 56 58 59 59

GFSMA_500_spd_180.txt.gz
Wind_Speed
30 31 32 34 35 36 37 38 39 40 42 43 44 44 44 45 46 46 46 48 49 50 50 50 49 48 47 46 44 42 40 39 38 37 35 31 28 27 26 25 26 29 29
33 34 35 37 38 38 39 40 41 42 43 42 42 42 43 43 44 44 45 45 46 47 49 50 51 51 50 48 46 45 44 43 41 40 39 37 34 32 29 29 27 27 31
36 36 38 38 39 39 40 41 41 40 40 40 40 42 42 43 43 43 44 45 45 47 49 51 51 51 51 52 51 49 47 46 45 44 41 40 38 36 34 32 30 27 28
39 40 40 40 41 41 40 39 39 40 41 42 41 42 43 43 40 36 36 38 41 44 46 48 49 52 53 54 55 53 51 49 49 47 44 42 40 39 38 36 34 31 29
42 42 42 41 39 38 38 40 41 42 42 42 43 37 30 29 30 34 38 40 43 46 51 54 56 56 55 54 55 55 52 50 61 52 45 43 43 42 39 38 37 35 31
44 42 39 37 37 40 41 41 42 43 41 33 26 24 27 31 34 34 35 40 45 49 55 57 61 62 61 59 58 56 53 44 37 52 52 47 46 39 38 36 37 36 35
37 35 36 37 40 41 42 42 38 28 22 19 23 29 32 31 28 32 37 42 47 57 59 58 58 60 62 63 61 60 54 54 45 48 52 49 39 36 36 35 38 37 36
33 34 37 39 40 41 40 27 20 19 20 24 28 30 27 27 29 34 40 47 53 59 59 46 46 51 53 54 61 63 62 63 64 50 36 49 49 51 45 39 37 38 37
36 37 37 39 39 31 21 17 17 21 25 28 28 25 23 26 32 38 44 50 54 61 49 42 48 49 46 51 52 56 66 66 62 60 40 44 52 45 47 50 41 39 37
36 36 38 35 25 18 16 16 19 24 27 25 27 25 26 31 33 34 40 46 52 55 41 44 45 43 42 45 48 47 52 63 65 71 71 47 44 52 45 46 41 39 38
35 35 30 23 19 17 17 18 22 25 23 25 22 24 28 30 30 31 34 42 47 49 41 41 42 40 36 37 39 44 45 52 60 65 60 52 46 27 47 44 38 39 40
35 28 22 17 17 19 19 21 22 23 22 20 20 22 23 26 27 29 33 38 43 46 42 37 38 22 21 23 18 31 36 43 51 59 58 54 60 54 36 33 38 42 38
25 21 17 18 18 19 19 20 20 18 21 21 22 22 24 24 25 30 34 39 41 42 43 33 31 26 10 9 15 20 25 34 35 48 56 53 59 51 47 35 32 38 35
20 18 17 18 18 18 17 18 17 19 20 22 22 22 22 24 29 32 36 39 39 37 38 34 24 20 13 9 11 7 14 20 27 36 41 47 46 50 39 36 34 34 35
19 17 16 14 15 15 17 16 17 18 21 23 24 23 24 26 31 33 36 40 38 35 32 32 25 17 18 14 5 6 12 15 23 23 29 31 32 33 34 31 30 34 36
19 17 15 14 13 14 16 17 16 19 21 23 23 23 25 26 29 32 34 38 38 33 30 26 24 18 13 10 8 7 7 5 12 22 24 24 23 25 27 29 32 33 37
19 18 16 15 14 14 15 16 17 19 20 22 22 24 25 26 28 32 33 35 34 33 29 25 21 19 17 12 6 4 5 9 13 17 20 22 23 26 29 33 35 37 37
20 20 20 18 16 15 16 16 17 20 23 24 25 25 25 25 28 29 31 33 33 31 29 26 23 18 14 12 11 7 6 8 11 14 17 20 23 26 29 31 33 35 37
23 24 24 21 20 18 17 17 19 21 24 25 26 25 25 26 27 29 31 32 32 31 28 26 24 21 19 14 8 5 4 3 6 9 11 13 16 18 21 23 24 26 27
28 27 27 25 24 22 21 20 21 22 24 25 26 27 28 28 29 30 32 32 33 32 30 28 25 24 22 20 18 15 13 12 11 12 12 13 16 18 19 23 24 25 28
30 29 28 27 27 26 25 25 25 26 28 28 28 29 29 29 31 32 34 34 33 34 33 31 29 26 25 24 23 22 22 21 22 22 22 23 24 25 26 28 29 31 32
34 31 30 29 29 29 28 28 28 29 30 31 32 32 32 32 33 34 35 37 36 36 36 35 33 30 29 27 27 27 28 27 29 30 30 30 32 33 34 35 36 37 39
35 34 33 31 31 32 30 31 31 31 33 33 33 35 36 36 35 36 37 38 38 39 39 39 37 34 32 31 30 28 28 29 32 35 36 37 37 38 39 41 42 43 45
36 36 36 35 33 35 34 34 35 36 36 37 38 38 40 40 40 40 39 40 40 42 42 43 42 39 36 35 34 34 33 31 31 33 37 40 42 42 43 44 45 47 48
38 39 39 39 38 39 39 39 38 38 38 40 41 41 43 44 45 45 44 43 44 44 45 46 45 42 40 39 38 37 37 38 37 38 38 38 41 43 45 47 48 49 51
39 39 41 42 43 44 45 44 43 42 42 44 45 46 48 48 49 48 48 47 47 47 48 48 48 46 43 41 41 41 42 44 43 41 41 40 40 42 44 46 48 50 52

GFSMA_500_spd_183.txt.gz
Wind_Speed
30 31 32 32 33 34 35 36 37 38 39 41 42 42 43 42 42 41 41 42 42 42 43 42 43 45 47 47 46 45 45 44 43 41 39 37 36 34 32 30 27 25 24
32 34 35 36 36 37 37 38 39 40 41 41 41 41 42 43 43 43 43 42 42 42 41 42 41 40 43 46 47 48 48 47 44 43 42 40 38 38 36 34 31 30 28
36 37 38 39 39 39 40 41 41 41 40 40 41 42 42 43 44 43 42 41 35 32 33 34 37 39 41 43 44 45 48 49 46 45 43 42 41 39 38 38 37 35 33
40 42 43 42 41 41 42 41 40 40 40 42 42 43 44 43 41 36 30 28 29 32 32 34 38 41 46 50 50 49 48 48 48 48 46 46 45 43 40 40 40 39 38
44 46 45 43 42 41 38 38 38 40 42 44 43 42 37 26 23 25 27 29 27 30 31 36 42 48 53 56 55 55 54 51 48 48 47 49 48 47 43 42 41 42 41
47 48 44 41 39 37 36 37 40 42 42 40 29 22 20 24 26 27 24 24 28 31 37 44 49 52 64 63 56 56 57 56 54 46 55 43 49 57 56 45 42 44 43
50 45 40 37 36 37 39 39 42 41 29 19 19 21 24 26 25 21 24 28 32 37 42 46 54 56 61 49 44 46 52 60 58 55 49 46 61 61 49 48 40 53 44
45 39 37 38 38 38 38 41 38 27 17 17 20 24 23 23 22 23 28 32 34 39 43 46 54 58 48 42 44 46 45 47 60 58 57 52 64 46 25 43 49 41 37
41 40 39 37 38 37 37 32 23 19 17 18 21 20 21 21 23 26 29 31 33 34 39 46 49 50 45 48 52 50 49 46 47 60 61 57 58 56 40 27 45 36 36
43 40 38 38 37 35 28 21 21 20 19 21 21 20 18 18 19 22 25 25 26 33 40 45 49 48 43 42 42 41 42 43 45 49 61 62 62 59 42 38 27 41 33
42 40 38 36 32 26 21 21 21 20 20 21 21 20 19 20 18 18 21 25 31 37 41 45 46 46 40 37 28 25 32 34 41 45 51 60 66 58 52 53 39 31 46
42 40 33 28 24 21 21 22 22 19 19 17 20 21 21 21 22 20 23 28 33 38 41 43 41 43 38 33 24 11 17 25 34 37 43 51 52 59 61 46 39 38 44
37 31 27 24 21 20 21 20 18 16 16 17 19 21 22 21 22 23 27 32 36 37 40 38 38 38 32 30 16 9 5 10 21 23 30 41 48 55 57 41 30 28 34
27 25 22 21 19 18 17 16 14 14 15 17 19 21 22 23 24 26 30 33 35 35 33 32 31 35 30 25 18 13 9 8 7 21 20 26 37 42 48 49 57 58 40
22 22 22 18 16 15 14 13 13 14 15 16 18 20 21 21 24 26 29 31 32 34 35 29 26 27 29 22 18 14 9 5 8 10 20 26 26 37 40 44 36 31 45
19 21 20 17 16 16 15 13 13 14 15 16 17 19 22 21 22 24 28 28 30 32 34 31 26 23 23 24 18 13 8 8 7 9 18 16 16 25 31 36 27 25 30
20 21 19 20 19 18 16 14 14 15 16 17 18 19 20 21 21 23 25 27 29 31 32 32 28 25 21 19 20 15 9 6 4 3 12 17 17 19 21 25 27 28 29
20 19 21 24 22 21 20 18 17 17 17 18 18 19 20 22 23 25 26 27 29 30 32 33 31 26 24 20 15 15 14 10 9 8 10 13 16 21 24 26 27 29 32
21 24 25 23 25 25 24 23 21 20 20 20 21 21 21 22 23 24 26 27 29 30 31 32 32 30 26 23 20 17 14 12 10 7 7 12 16 18 20 22 25 28 31
24 23 26 29 30 28 28 27 26 26 25 25 25 25 26 25 25 26 28 29 30 31 31 32 32 32 30 27 23 21 19 17 16 15 12 11 10 11 14 17 20 23 26
30 29 29 31 31 31 31 30 30 30 29 29 28 27 28 28 28 29 30 31 32 33 33 33 33 33 33 31 28 25 23 21 22 21 22 22 21 21 22 23 25 26 28
35 34 35 35 36 34 33 32 32 32 32 31 31 30 30 30 30 31 32 34 35 34 35 36 36 36 36 35 34 30 26 24 24 24 24 28 30 31 32 32 34 35 36
37 40 38 37 38 37 37 35 35 34 34 34 34 35 35 35 35 34 35 36 37 38 37 37 38 38 39 38 37 35 32 29 27 27 27 28 28 34 38 40 41 42 44
40 40 42 41 39 40 41 39 39 37 37 38 38 38 38 40 40 38 39 41 42 43 42 41 40 40 41 41 41 40 37 34 31 31 31 33 34 34 34 37 42 46 48
33 37 41 41 41 42 43 44 43 42 42 43 43 43 44 45 45 44 43 45 46 47 46 46 45 45 45 45 45 44 43 40 38 35 36 37 39 39 39 39 39 41 43
36 38 42 44 43 43 46 46 47 47 47 48 48 49 50 49 49 49 49 49 50 52 49 48 47 47 48 46 45 44 44 42 41 41 41 40 39 40 39 40 41 43 44

GFSMA_500_spd_186.txt.gz
Wind_Speed
28 29 31 33 34 36 37 38 38 39 40 41 42 42 42 42 42 43 43 43 44 44 43 41 40 39 39 40 40 40 40 41 43 43 43 43 41 38 37 36 35 33 31
30 32 34 37 38 40 41 41 41 42 42 43 43 41 41 41 42 44 45 45 45 44 43 40 34 31 30 31 33 35 37 39 41 43 44 45 44 43 40 38 37 36 35
34 36 38 41 42 43 44 44 43 44 44 41 40 39 40 43 45 46 46 45 41 33 28 26 26 25 25 30 33 36 41 46 47 47 45 44 46 44 42 41 39 39 39
38 40 42 44 45 46 46 44 42 41 39 39 39 41 44 46 46 43 36 27 24 25 27 24 26 26 31 35 38 43 47 49 51 53 51 47 45 46 45 44 42 40 40
42 44 47 49 50 49 46 43 40 38 38 39 41 44 44 38 28 22 23 25 27 26 24 27 30 34 38 43 46 49 51 57 63 62 57 52 46 45 48 49 46 43 43
47 49 52 54 53 49 43 40 38 39 40 40 42 38 26 22 22 24 26 27 24 25 29 31 35 40 45 48 51 52 58 57 57 59 59 53 49 38 52 51 49 47 45
51 54 54 51 46 42 41 40 41 40 39 39 32 24 23 24 25 24 22 21 24 28 30 31 36 38 42 46 48 53 54 51 49 54 59 61 53 50 42 60 50 44 46
54 48 45 43 43 41 42 40 40 38 35 27 25 25 24 25 24 22 20 22 25 25 26 29 32 39 44 46 51 54 52 53 50 48 50 60 62 53 47 47 48 48 50
50 47 47 46 45 42 41 39 37 32 26 26 26 24 25 23 22 20 20 21 23 23 25 30 36 43 43 45 49 51 52 50 45 52 50 51 63 62 74 47 43 50 47
49 48 48 47 43 41 39 31 27 26 27 26 25 24 22 22 21 20 19 22 22 25 28 32 39 43 39 43 46 46 43 37 35 45 52 50 54 61 64 61 56 57 28
50 51 49 46 41 36 30 26 26 27 27 25 23 21 21 22 23 23 22 24 25 28 33 35 40 40 36 40 40 36 35 26 18 22 38 44 47 50 59 60 55 52 43
47 48 44 35 31 27 25 24 24 25 24 23 19 18 20 23 24 25 25 24 28 31 34 35 38 39 33 37 36 34 31 23 13 12 23 33 39 43 51 59 56 51 55
39 30 26 24 24 23 23 21 20 20 17 15 15 17 20 22 23 25 27 27 30 30 31 33 34 35 31 33 32 31 30 17 12 12 9 26 30 35 43 48 55 55 51
24 21 20 20 20 21 19 17 16 15 13 12 13 15 17 19 20 22 24 27 28 27 28 29 30 31 30 28 30 27 26 14 13 12 27 17 26 19 15 22 33 46 49
22 20 20 19 20 18 17 16 16 15 14 12 13 15 15 17 18 18 19 21 24 25 25 26 28 29 28 26 26 25 22 23 18 14 14 13 13 16 20 36 40 32 46
19 19 19 20 19 18 17 17 16 16 16 15 14 15 17 17 18 19 19 20 21 22 24 26 28 28 27 25 23 22 21 15 18 17 12 8 13 13 14 20 28 32 32
22 21 20 20 20 18 20 21 18 17 18 17 17 17 17 18 18 19 20 21 22 22 24 26 27 28 28 27 24 21 19 18 14 12 14 11 15 16 13 16 22 28 31
24 23 22 22 21 22 27 25 23 22 22 20 19 19 19 20 21 21 21 23 23 23 25 27 27 29 28 28 27 24 20 17 16 14 13 13 12 15 19 19 21 23 25
25 24 24 25 26 28 25 26 27 27 27 26 25 25 25 24 25 25 26 25 25 25 26 27 28 29 29 28 28 26 24 21 18 16 14 12 14 16 18 20 23 26 28
28 27 26 28 29 36 31 32 32 31 31 32 31 30 30 29 27 26 26 26 26 28 28 29 29 31 32 31 30 29 27 24 22 20 18 17 16 14 15 16 21 25 27
31 29 30 32 33 32 36 37 36 34 34 34 35 34 34 33 31 30 29 29 29 29 30 31 32 32 33 33 32 31 31 29 27 23 22 20 20 21 22 22 21 22 23
37 36 36 35 36 38 39 38 39 37 37 37 37 37 37 36 35 35 34 34 34 33 34 33 34 34 35 35 36 36 35 34 31 29 28 25 23 22 22 26 29 30 31
39 40 40 40 42 40 44 44 43 41 40 40 39 39 39 40 39 38 37 38 38 39 38 38 38 38 38 39 38 38 38 38 36 33 30 29 28 26 27 27 28 31 35
34 38 41 42 43 46 46 47 46 42 41 43 43 44 43 44 44 43 43 43 44 44 44 43 42 42 41 43 42 42 42 42 40 38 37 33 31 32 32 32 34 36 37
32 34 37 39 37 38 43 46 48 46 44 45 47 47 47 48 50 49 47 48 48 49 48 45 45 45 46 47 47 46 46 46 45 42 39 38 38 36 35 35 36 40 41
35 37 38 38 38 37 41 46 49 48 45 47 49 50 52 53 54 53 51 51 50 53 50 48 49 50 51 53 52 50 48 49 48 45 43 41 40 40 40 41 40 40 40

GFSMA_500_spd_189.txt.gz
Wind_Speed
31 31 32 33 34 36 38 41 42 43 43 43 42 43 43 43 42 40 39 39 40 42 42 42 42 41 39 38 36 32 32 32 33 34 35 35 37 39 39 39 38 36 35
32 33 34 36 38 40 43 45 46 46 45 44 45 44 43 41 39 39 40 41 43 44 46 42 39 32 29 28 27 26 26 28 30 31 33 36 36 37 39 41 41 40 38
33 35 37 40 43 46 48 49 50 50 48 45 43 41 39 38 38 39 42 45 44 40 34 29 25 25 26 25 28 28 31 33 35 38 40 41 39 41 41 42 42 42 41
36 38 41 43 46 49 52 55 55 54 48 43 41 38 37 39 41 44 41 33 26 22 23 25 26 26 26 28 31 34 38 41 43 45 47 46 49 50 48 47 44 44 43
41 43 45 48 50 54 56 56 54 49 43 40 39 39 39 39 42 35 26 23 23 26 28 29 25 27 30 33 36 38 42 45 48 51 51 52 56 58 57 55 49 47 47
45 47 50 53 55 56 52 46 43 42 40 41 41 38 37 38 30 25 24 26 27 29 28 25 27 31 33 35 35 39 45 49 49 51 53 55 56 55 54 50 53 48 52
49 53 56 58 59 52 47 48 46 45 44 41 39 37 34 28 26 26 26 27 27 26 24 27 30 30 30 31 37 44 47 46 50 54 57 61 59 55 51 55 51 51 60
54 58 61 58 50 48 49 49 46 42 41 40 34 30 28 28 27 26 26 25 23 24 25 25 26 26 31 35 41 47 43 46 51 55 56 57 61 59 54 56 63 53 44
61 58 53 52 53 51 51 49 44 39 34 30 29 28 29 28 26 25 25 24 23 25 24 24 26 29 33 37 43 43 41 47 48 46 48 48 50 54 53 54 63 58 46
54 58 58 54 54 51 47 43 38 33 28 27 28 28 27 27 25 24 23 24 25 27 26 28 30 32 34 38 42 39 41 42 42 40 35 31 37 43 48 48 61 65 35
58 57 52 46 44 43 36 29 28 27 26 26 25 25 24 22 20 22 24 25 28 29 28 29 32 33 34 36 38 35 39 39 34 32 27 19 21 32 38 37 45 64 68
42 38 39 36 31 28 23 22 23 23 22 22 21 18 16 16 18 20 22 23 25 28 30 31 32 34 33 32 32 30 37 33 30 27 25 12 7 19 29 32 35 46 53
37 36 33 31 27 22 19 19 18 19 19 18 16 15 14 14 16 17 19 19 20 21 24 28 28 29 30 29 29 26 34 33 27 25 28 23 11 16 19 27 27 34 38
38 34 34 31 25 20 17 16 16 17 18 18 16 14 13 12 13 15 16 17 17 16 17 22 23 24 27 28 27 25 27 35 29 23 19 29 6 17 25 26 21 28 33
32 31 30 24 20 16 16 15 16 17 19 18 16 15 15 15 15 15 16 16 16 17 16 17 21 22 25 27 28 25 22 27 31 26 22 13 11 6 15 13 12 21 28
29 30 29 26 23 19 17 17 19 18 20 19 17 17 17 17 17 17 17 17 17 17 19 18 20 21 23 25 26 26 23 21 26 29 25 20 13 6 9 10 11 25 26
28 30 30 28 24 23 22 22 21 21 25 21 19 18 18 18 18 19 19 20 20 19 20 21 20 22 24 24 25 26 25 20 19 21 25 23 18 16 14 13 11 16 24
33 33 32 29 26 25 25 25 27 27 29 26 24 23 23 23 23 23 24 23 23 23 22 24 23 22 24 25 25 25 25 25 20 17 17 18 19 18 17 16 17 17 19
36 35 33 30 28 27 28 29 31 33 30 28 29 30 30 29 29 29 28 27 24 23 22 23 25 24 24 25 26 27 27 27 25 22 18 18 20 19 17 16 16 17 19
36 34 33 32 31 30 30 34 35 37 36 34 32 33 34 34 35 35 34 33 29 27 27 27 28 28 28 28 28 29 29 29 29 27 25 20 19 21 22 19 17 16 18
34 31 34 36 34 32 33 35 36 34 37 39 40 37 35 36 37 37 37 37 35 33 32 31 30 31 32 33 31 31 32 32 32 30 29 28 23 20 23 23 24 22 20
35 33 31 39 41 40 40 40 38 39 41 40 41 42 41 39 39 38 39 39 39 38 36 35 34 35 36 36 36 35 34 35 36 37 35 33 29 27 23 23 25 25 25
36 35 33 32 40 44 45 45 44 43 42 45 46 46 44 43 42 42 42 41 41 41 42 42 40 40 39 40 39 38 38 38 38 39 39 38 37 32 29 28 27 26 27
37 36 36 35 32 35 41 43 43 44 46 49 49 50 47 45 46 46 46 45 46 46 48 47 46 45 44 43 41 41 41 42 43 42 41 41 41 37 34 32 30 31 31
38 36 36 36 38 38 39 41 41 41 40 40 46 49 49 49 51 51 49 48 49 50 53 50 48 47 48 47 45 44 46 47 48 46 45 41 41 39 37 35 35 35 34
39 41 40 40 39 39 40 41 43 43 39 39 43 48 51 52 54 54 53 52 50 53 56 53 51 50 51 51 51 51 51 52 53 51 47 42 38 36 37 37 37 38 40

GFSMA_500_spd_192.txt.gz
Wind_Speed
28 30 32 33 34 35 36 38 41 44 46 48 49 47 46 43 41 41 38 37 35 34 36 39 40 42 42 41 40 37 33 30 28 29 30 31 31 30 31 34 35 36 36
32 32 34 36 37 38 40 42 45 47 49 50 52 51 49 45 41 38 36 35 35 37 40 41 38 35 32 29 28 26 25 26 25 26 28 30 31 31 30 28 30 33 36
36 36 38 40 41 42 45 47 49 51 53 54 54 51 46 41 38 36 36 36 38 39 36 31 26 23 22 22 25 26 26 26 29 32 35 37 38 39 37 34 32 28 33
40 40 40 42 45 47 49 51 54 56 56 53 47 42 40 37 36 37 37 37 36 32 26 23 24 24 26 27 26 27 29 32 35 37 40 42 44 45 46 45 42 40 39
44 44 44 46 48 50 52 55 57 56 50 46 42 41 40 39 38 35 34 33 29 25 25 26 29 30 27 24 27 32 34 36 36 38 43 48 50 50 50 49 47 46 45
46 47 48 49 51 55 58 57 50 46 46 46 46 43 40 38 35 32 30 28 25 26 28 29 29 27 26 28 31 31 32 33 38 44 47 49 51 51 53 53 53 52 49
49 49 51 53 56 57 53 53 55 53 50 48 45 39 35 32 30 28 27 27 26 27 29 29 27 27 28 30 29 31 34 38 44 47 47 47 52 55 57 58 58 57 54
52 54 56 57 55 59 60 57 53 50 47 42 37 34 30 29 27 27 27 26 26 26 26 25 26 26 27 27 29 33 36 40 44 43 47 52 53 55 56 56 62 66 63
55 57 55 58 61 57 49 44 42 41 37 32 30 29 28 27 26 26 26 25 23 23 24 25 25 25 27 28 31 34 36 41 38 43 43 41 44 46 50 51 59 62 64
56 55 59 54 42 38 39 38 36 32 25 24 24 25 25 24 24 22 20 21 23 24 25 26 26 25 25 29 31 33 34 33 34 37 35 30 44 41 34 28 39 53 57
55 57 48 40 41 39 36 36 30 23 19 19 19 20 20 19 18 18 18 17 19 22 23 25 25 24 24 27 30 32 30 29 33 35 31 31 40 29 15 8 13 29 36
53 46 41 40 37 35 35 34 26 18 16 16 17 17 17 16 14 13 14 16 18 18 19 20 21 22 22 23 25 27 27 27 30 33 32 31 29 20 9 3 5 13 21
46 39 39 36 33 33 31 26 19 15 15 15 17 16 17 16 13 11 11 13 15 15 16 16 17 19 19 19 22 24 25 26 27 32 30 27 17 15 14 6 5 13 16
38 39 36 32 30 30 26 21 16 14 15 14 16 18 16 15 14 13 13 13 15 14 13 15 15 16 18 18 19 22 24 25 25 25 29 25 14 15 23 8 17 23 15
39 36 30 30 30 29 26 22 19 17 16 16 17 17 17 16 16 15 15 15 15 17 17 14 17 17 17 18 19 21 25 26 25 25 25 25 20 11 6 7 6 2 12
37 29 29 31 31 29 26 24 22 20 19 20 20 20 17 17 16 16 16 16 16 17 19 17 17 18 18 18 19 19 21 26 26 26 24 24 23 19 12 7 8 11 14
29 28 29 32 30 28 27 25 25 24 24 23 22 23 22 20 18 18 19 19 20 20 20 21 19 19 20 19 20 20 20 23 25 26 26 25 23 23 18 14 11 15 14
28 28 30 31 31 28 29 28 28 27 27 28 31 28 28 26 25 25 24 24 24 23 22 22 20 20 21 21 21 22 22 21 24 24 24 24 22 22 23 22 16 13 16
29 30 32 31 33 30 30 30 29 29 30 31 32 33 30 28 28 30 30 31 31 29 27 25 26 24 24 24 24 24 24 23 23 23 24 23 22 21 20 21 22 18 14
32 32 33 33 32 33 34 32 32 31 30 35 36 40 42 37 35 33 33 34 34 34 33 31 30 29 27 26 27 28 27 27 27 26 25 25 25 23 20 19 20 22 20
36 37 37 34 34 33 34 38 35 33 32 34 36 39 41 42 41 40 37 36 35 34 34 34 33 32 32 31 31 31 31 31 29 29 29 28 27 26 23 20 18 19 20
39 39 38 37 36 36 35 35 41 42 42 41 39 39 41 45 44 43 44 43 40 38 37 36 35 35 36 35 36 36 36 34 33 32 30 32 32 32 29 25 21 18 18
42 41 41 40 38 38 38 36 36 40 43 46 47 47 49 49 48 49 49 46 44 43 41 42 41 41 40 41 40 41 39 37 37 36 35 35 37 35 35 32 28 24 21
43 42 42 41 39 38 39 39 38 37 36 37 38 41 43 46 50 55 53 50 47 45 46 47 45 46 45 45 45 44 43 41 39 40 40 39 41 39 37 35 33 28 25
46 45 44 43 42 39 40 41 40 39 38 39 41 42 41 41 43 46 50 51 50 48 51 53 50 49 49 49 49 47 46 44 43 43 45 45 45 45 39 36 33 32 31
49 48 48 48 47 46 46 44 44 45 44 43 42 42 42 41 42 43 44 46 49 51 54 53 52 51 51 50 52 53 51 49 49 48 50 50 50 46 43 38 36 37 38